• Processing (Info)

  • MPEC 2008-C83 : 2008 CL116

    The following Minor Planet Electronic Circular may be linked-to from your own Web pages, but must not otherwise be redistributed electronically.

    A form allowing access to any MPEC is at the bottom of this page.


    Read MPEC 2008-C82 Read MPEC 2008-C84


    M.P.E.C. 2008-C83                                Issued 2008 Feb. 13, 15:59 UT
    
         The Minor Planet Electronic Circulars contain information on unusual
             minor planets and routine data on comets.  They are published
       on behalf of Commission 20 of the International Astronomical Union by the
              Minor Planet Center, Smithsonian Astrophysical Observatory,
                              Cambridge, MA 02138, U.S.A.
    
                 Prepared using the Tamkin Foundation Computer Network
    
                                  MPC@CFA.HARVARD.EDU
              URL http://www.cfa.harvard.edu/iau/mpc.html  ISSN 1523-6714
    
                                      2008 CL116
    
    Observations:
         K08CB6L* C2008 02 10.40671 13 03 20.01 +22 01 53.5          19.5 V EC083703
         K08CB6L  C2008 02 10.41531 13 03 22.64 +22 02 16.9          20.3 V EC083703
         K08CB6L  C2008 02 10.42382 13 03 25.30 +22 02 37.2          20.8 V EC083703
         K08CB6L  C2008 02 10.43231 13 03 27.97 +22 02 59.0          20.5 V EC083703
         K08CB6L  C2008 02 10.46779 13 03 38.98 +22 04 24.6          20.3 V EC083703
         K08CB6L  C2008 02 10.47618 13 03 41.58 +22 04 46.7          19.6 V EC083703
         K08CB6L  C2008 02 10.48453 13 03 44.17 +22 05 07.2          20.4 V EC083703
         K08CB6L  C2008 02 10.49292 13 03 46.69 +22 05 26.4          20.5 V EC083703
         K08CB6L  C2008 02 10.53484 13 03 59.79 +22 07 11.7          20.3 V EC083703
         K08CB6L  C2008 02 10.53572 13 04 00.04 +22 07 12.5          20.6 V EC083703
         K08CB6L  C2008 02 10.53659 13 04 00.26 +22 07 14.9          20.6 V EC083703
         K08CB6L  C2008 02 10.53747 13 04 00.62 +22 07 17.6          20.5 V EC083703
         K08CB6L  C2008 02 11.00363 13 06 32.69 +22 26 34.9          20.1 R EC083B04
         K08CB6L  C2008 02 11.00540 13 06 33.27 +22 26 38.9          20.0 R EC083B04
         K08CB6L  C2008 02 11.00716 13 06 33.82 +22 26 43.2          19.7 R EC083B04
         K08CB6L  C2008 02 11.01203 13 06 35.38 +22 26 55.9          20.1 R EC083B04
         K08CB6L  C2008 02 11.02087 13 06 38.18 +22 27 18.0          19.8 R EC083B04
         K08CB6L  C2008 02 11.02441 13 06 39.33 +22 27 26.8          20.0 R EC083B04
         K08CB6L  C2008 02 11.02795 13 06 40.46 +22 27 35.4          20.0 R EC083B04
         K08CB6L  C2008 02 11.43574 13 08 54.84 +22 44 54.9          20.8 V EC083703
         K08CB6L  C2008 02 11.44426 13 08 57.53 +22 45 19.6          21.1 V EC083703
         K08CB6L  C2008 02 11.45274 13 09 00.19 +22 45 38.9                 EC083703
         K08CB6L 5C2008 02 11.53588 13 09 27.60 +22 49 10.9          20.3 R EC083673
         K08CB6L 5C2008 02 11.54132 13 09 29.42 +22 49 24.3                 EC083673
         K08CB6L 5C2008 02 11.54606 13 09 31.00 +22 49 36.6                 EC083673
         K08CB6L 5C2008 02 11.54977 13 09 32.23 +22 49 45.8                 EC083673
         K08CB6L  C2008 02 12.04395 13 12 20.95 +23 10 57.6                 EC083246
         K08CB6L  C2008 02 12.04597 13 12 21.60 +23 11 02.4                 EC083246
         K08CB6L  C2008 02 12.04880 13 12 22.53 +23 11 09.5                 EC083246
         K08CB6L  C2008 02 12.44920 13 14 41.20 +23 28 46.9          20.5 V EC083G96
         K08CB6L  C2008 02 12.45613 13 14 43.58 +23 29 05.4          20.3 V EC083G96
         K08CB6L  C2008 02 12.46303 13 14 45.92 +23 29 23.6          20.4 V EC083G96
         K08CB6L  C2008 02 12.46997 13 14 48.30 +23 29 42.1          20.3 V EC083G96
         K08CB6L  C2008 02 13.09117 13 18 30.02 +23 57 11.8                 EC083J95
         K08CB6L  C2008 02 13.09759 13 18 32.29 +23 57 30.0                 EC083J95
         K08CB6L  C2008 02 13.10427 13 18 34.73 +23 57 47.3          20.2 R EC083J95
         K08CB6L tC2008 02 13.39864 13 20 22.22 +24 11 12.3                 EC083291
         K08CB6L tC2008 02 13.40571 13 20 24.77 +24 11 31.7                 EC083291
         K08CB6L tC2008 02 13.40976 13 20 26.11 +24 11 42.3                 EC083291
         K08CB6L  C2008 02 13.42016 13 20 29.97 +24 12 09.9          20.1 V EC083G96
         K08CB6L  C2008 02 13.42749 13 20 32.56 +24 12 30.0          20.1 V EC083G96
         K08CB6L  C2008 02 13.43339 13 20 34.61 +24 12 45.7          20.3 R EC083H01
         K08CB6L  C2008 02 13.43477 13 20 35.11 +24 12 49.4          20.3 R EC083H01
         K08CB6L  C2008 02 13.43483 13 20 35.19 +24 12 50.0          20.2 V EC083G96
         K08CB6L  C2008 02 13.43847 13 20 36.43 +24 12 59.2          20.3 R EC083H01
         K08CB6L  C2008 02 13.44130 13 20 37.46 +24 13 07.3          20.6 R EC083H01
         K08CB6L  C2008 02 13.44219 13 20 37.89 +24 13 10.1          20.3 V EC083G96
    
    Observer details:
    246 Klet Observatory-KLENOT.  Observer M. Tichy.  1.06-m KLENOT Telescope
        + CCD.
    291 LPL/Spacewatch II.  Observer R. S. McMillan.  1.8-m f/2.7 reflector + CCD.
    673 Table Mountain Observatory, Wrightwood.  Observer J. Young.  0.61-m f/16
        Cassegrain + CCD.
    703 Catalina Sky Survey.  Observer R. E. Hill.  Measurers E. C. Beshore,
        A. Boattini, G. J. Garradd, A. R. Gibbs, A. D. Grauer, R. E. Hill,
        R. A. Kowalski, S. M. Larson, R. H. McNaught.  0.68-m Schmidt + CCD.
    B04 Saint-Barthelemy Observatory.  Observer A. Carbognani.  0.81-m f/7.9
        reflector + CCD.
    G96 Mt. Lemmon Survey.  Observers R. A. Kowalski, A. D. Grauer.  Measurers
        E. C. Beshore, A. Boattini, G. J. Garradd, A. R. Gibbs, A. D. Grauer,
        R. E. Hill, R. A. Kowalski, S. M. Larson, R. H. McNaught.  1.5-m reflector
        + CCD.
    H01 Magdalena Ridge Observatory, Socorro.  Observer W. H. Ryan.  2.4-m f/8.9
        reflector + CCD.
    J95 Great Shefford.  Observer P. Birtwhistle.  0.40-m f/6.0 Schmidt-Cassegrain
        + CCD.
    
    Orbital elements:
    2008 CL116                                          PHA, Earth MOID = 0.0146 AU
    Epoch 2007 Oct. 27.0 TT = JDT 2454400.5                 MPC
    M 319.25421              (2000.0)            P               Q
    n   0.23241410     Peri.  114.87951     -0.45626857     +0.85477249
    a   2.6199585      Node   125.69621     -0.88596705     -0.41046435
    e   0.6968668      Incl.   17.73258     -0.08295406     -0.31762085
    P   4.24           H   20.4           G   0.15           U   9
    Residuals in seconds of arc
    080210 703  0.6+  1.6-    080211 B04  0.5-  0.2+    080212 G96  0.0   0.2-
    080210 703  0.1+  0.5+    080211 B04  0.4-  0.0     080213 J95  0.0   0.6-
    080210 703  0.3+  0.2-    080211 B04  0.5-  0.4-    080213 J95  0.2-  0.2+
    080210 703  0.8+  0.6+    080211 703  0.7+  0.4-    080213 J95  0.7+  0.6-
    080210 703  0.8+  1.4-    080211 703 (0.4-  2.4+)   080213 291  0.0   0.5+
    080210 703  0.7+  0.0     080211 703  1.8-  0.0     080213 291  0.2+  0.5+
    080210 703  0.6+  0.1-    080211 673  0.3-  0.4+    080213 291  1.4-  0.0
    080210 703  0.6-  1.5-    080211 673  0.2+  0.0     080213 G96  0.6+  0.7-
    080210 703  0.2-  0.7+    080211 673  0.6+  0.2+    080213 G96  0.0   0.7-
    080210 703  0.5-  0.6-    080211 673  0.7+  0.0     080213 H01  0.3+  0.6-
    080210 703  1.2-  0.3-    080212 246  0.4+  0.1-    080213 H01  0.4+  0.7-
    080210 703  0.0   0.2+    080212 246  0.1-  0.6-    080213 G96  0.1-  0.7-
    080211 B04  0.4+  0.9+    080212 246  0.4-  1.0-    080213 H01  0.2+  1.0-
    080211 B04  0.5+  0.4+    080212 G96  0.0   0.5-    080213 H01  0.4+  0.6-
    080211 B04  0.3+  0.2+    080212 G96  0.2+  0.3-    080213 G96  0.7+  0.8-
    080211 B04  0.1+  0.5+    080212 G96  0.1-  0.3-
    
    Ephemeris:
    2008 CL116               a,e,i = 2.62, 0.70, 18                  q = 0.7942
    Date    TT    R. A. (2000) Decl.     Delta      r     Elong.  Phase     V
    2008 02 14    13 24.09   +24 38.7    0.382    1.259   127.9    38.3    20.3
    2008 02 24    14 46.29   +32 54.5    0.305    1.157   116.2    50.1    20.0
    2008 03 05    16 50.08   +38 09.2    0.277    1.059    96.4    68.6    20.1
    2008 03 15    18 54.16   +35 07.6    0.300    0.968    76.3    86.2    20.7
    2008 03 25    20 18.64   +27 54.5    0.360    0.890    62.5    96.5    21.4
    
    Gareth V. Williams           (C) Copyright 2008 MPC           M.P.E.C. 2008-C83
    

    Read MPEC 2008-C82 Read MPEC 2008-C84


    MPEC number:

    Enter an MPEC number in one of the following forms:

    • 1997-B01 (the full form)
    • J97B01 (the packed version of the full form)
    • B01 (the abbreviated form)